Regional Weather Roundup
Issued by NWS

Home | Current Version | Previous Version | Graphics & Text | Print | Product List | Glossary Off
Versions: 1 2 3 4 5 6 7 8 9 10 11 12 13 14 15 16 17 18 19 20 21 22 23 24 25 26 27 28 29 30 31 32 33 34 35 36 37 38 39 40 41 42 43 44 45 46 47 48 49 50

000
ASUS43 KDMX 240906
RWRIA

WEATHER ROUNDUP FOR IOWA
NATIONAL WEATHER SERVICE DES MOINES IA
400 AM CDT MON JUL 24 2017

NOTE: "FAIR" INDICATES FEW OR NO CLOUDS BELOW 12,000 FEET WITH NO
SIGNIFICANT WEATHER AND/OR OBSTRUCTIONS TO VISIBILITY.

* - THESE STATIONS ARE NOT NWS STATIONS...THUS NOT UNDER NWS
QUALITY CONTROL.  THEY ALSO DO NOT REPORT WEATHER SUCH
AS PRECIPITATION OR FOG.

IAZ001>003-012>014-020>022-031>034-043>046-241000-
   NORTHWEST IOWA

CITY           SKY/WX    TMP DP  RH WIND       PRES   REMARKS
CARROLL *      CLEAR     59  59 100 CALM      30.01S
CHEROKEE *     CLEAR     56  56 100 CALM      30.02S
DENISON *      CLEAR     57  57 100 CALM      30.03S
ORANGE CITY *  CLEAR     63  57  82 CALM      30.03R
SHELDON *      CLEAR     54  52  94 CALM      30.01S
SIOUX CITY     CLEAR     59  58  96 CALM      30.02S
SPENCER        CLEAR     57  55  93 NE3       30.02S
STORM LAKE *   CLEAR     59  57  94 NE7       30.02S
$$

IAZ055>058-069>071-079>083-090>094-241000-
   SOUTHWEST IOWA

CITY           SKY/WX    TMP DP  RH WIND       PRES   REMARKS
ATLANTIC *     CLEAR     59  59 100 N5        30.00S
AUDUBON *      CLEAR     57  55  94 CALM      30.02S
CLARINDA *     CLEAR     63  63 100 NE3       30.01F
COUNCIL BLFS * CLEAR     64  63  94 E5        30.01R
CRESTON *      CLEAR     63  59  88 CALM      30.01S
HARLAN  *      CLEAR     59  59 100 CALM      30.04S
LAMONI         CLEAR     64  60  87 N6        29.99S
RED OAK *      CLEAR     63  61  94 CALM      30.00S
SHENANDOAH *   CLEAR     63  63 100 CALM      30.00S
$$

IAZ047>049-059>061-072>074-084-241000-
   CENTRAL IOWA

CITY           SKY/WX    TMP DP  RH WIND       PRES   REMARKS
AMES           CLEAR     62  61  96 CALM      29.99F
ANKENY *       CLEAR     61  59  94 CALM      30.01R
BOONE *        CLEAR     61  59  94 NE6       30.00S
CHARITON *     CLEAR     63  59  88 N6        29.99R
DES MOINES     CLEAR     66  61  84 NE3       29.98S
GRINNELL*      CLEAR     61  58  91 N5        30.00S
KNOXVILLE *    CLEAR     63  59  88 CALM      29.97S
MARSHALLTOWN   CLEAR     60  59  96 N6        29.99S
NEWTON *       CLEAR     63  59  88 NE6       29.99S
PELLA *          N/A     62  59  92 CALM      29.99S
$$

IAZ004>006-015-016-023>025-035-036-241000-
   NORTH CENTRAL IOWA

CITY           SKY/WX    TMP DP  RH WIND       PRES   REMARKS
ALGONA *       CLEAR     57  57 100 CALM      30.03R
CLARION *      CLEAR     57  57 100 NE6       30.01F
ESTHERVILLE    CLEAR     57  57 100 NE5       30.03S
FORT DODGE *   CLEAR     59  57  94 NE5       30.02S
MASON CITY     CLEAR     55  54  96 N7        30.03F
FOREST CITY *    N/A     57  57 100 CALM      30.02S
WEBSTER CITY * CLEAR     55  55 100 CALM      29.99S FOG
IOWA FALLS *     N/A     61  58  91 CALM      30.01F
$$

IAZ007>011-017>019-026>030-037>042-050>054-066-241000-
   NORTHEAST IOWA

CITY           SKY/WX    TMP DP  RH WIND       PRES   REMARKS
CEDAR RAPIDS   CLEAR     61  61 100 N5        29.96S
CHARLES CITY * CLEAR     59  59 100 N5        30.01S
DECORAH *      CLEAR     59  57  94 CALM      30.00S
DUBUQUE        CLOUDY    65  61  87 NE10      29.98R
MONTICELLO *   CLEAR     61  61 100 N3        29.97R
OELWEIN *        N/A    N/A N/A N/A MISG        N/A
WATERLOO       CLEAR     59  57  93 NW5       29.99R
$$

IAZ064-065-067-068-078-241000-
   EAST CENTRAL IOWA

CITY           SKY/WX    TMP DP  RH WIND       PRES   REMARKS
DAVENPORT      CLEAR     62  61  96 N7        29.96R
IOWA CITY      CLEAR     68  61  78 N7        29.97R
MT. PLEASANT * CLEAR     64  63  97 N7        29.95S
MUSCATINE *    CLEAR     64  61  88 N6        29.95S
QUAD CITIES    CLEAR     68  61  78 VRB3      29.94R
$$

IAZ062-063-075>077-085>089-095>099-241000-
   SOUTHEAST IOWA

CITY           SKY/WX    TMP DP  RH WIND       PRES   REMARKS
BURLINGTON     CLEAR     66  63  90 N7        29.93F
FAIRFIELD *    CLEAR     61  59  94 N6        29.96R
FORT MADISON * CLEAR     63  63 100 CALM      29.95S
KEOKUK *       CLEAR     64  63  94 N5        29.93S
OSKALOOSA *      N/A     61  59  94 N6        29.98S
CENTERVILLE *    N/A     61  59  94 CALM      29.99S
OTTUMWA        CLEAR     62  60  93 N7        29.97R
WASHINGTON *   CLEAR     64  63  94 N8        29.97S
$$

ABBREVIATIONS USED IN REMARKS
   TC - TEMPERATURES IN CELSIUS
  WCI - WIND CHILL INDEX
   HX - HEAT INDEX
  VSB - VISIBILITY
$$





USA.gov is the U.S. government's official web portal to all federal, state and local government web resources and services.